Вернуться в каталог

SATCOM K1

АктивенСвязьGEO
NORAD 16482·PAYLOAD·🇺🇸 United States

Запущен Jan 12, 1986 с Cape Canaveral Space Force Station

Loading…

TLE

СвежийSource: Space-Track

Эпоха: Sep 13, 2026, 17:40 UTC

1 16482U 86003B   26256.73644122 -.00000058  00000-0  00000-0 0  9992
2 16482  14.6598 350.4142 0005739 222.9685 128.1244  0.99552849125329

Отслеживайте SATCOM K1 в реальном времени с AllMySat

Download on the App Store